TimePST,TemperatureF,Dew PointF,Humidity,Sea Level PressureIn,VisibilityMPH,Wind Direction,Wind SpeedMPH,Gust SpeedMPH,PrecipitationIn,Events,Conditions,WindDirDegrees,DateUTC
12:53 AM,36.0,35.1,97,30.24,10.0,WNW,3.5,-,N/A,,Clear,300,2013-02-16 08:53:00
1:53 AM,36.0,35.1,97,30.23,5.0,Calm,Calm,-,N/A,,Clear,0,2013-02-16 09:53:00
2:31 AM,36.0,35.1,97,30.23,7.0,WNW,3.5,-,N/A,,Mostly Cloudy,300,2013-02-16 10:31:00
2:41 AM,36.0,35.1,97,30.23,2.5,WNW,4.6,-,N/A,,Mostly Cloudy,300,2013-02-16 10:41:00
2:49 AM,37.4,35.6,93,30.23,8.0,WNW,4.6,-,N/A,,Overcast,300,2013-02-16 10:49:00
2:53 AM,37.9,37.0,97,30.23,10.0,NW,4.6,-,N/A,,Overcast,320,2013-02-16 10:53:00
3:27 AM,39.9,39.0,97,30.22,8.0,Calm,Calm,-,N/A,,Overcast,0,2013-02-16 11:27:00
3:53 AM,41.0,39.9,96,30.22,4.0,WNW,3.5,-,N/A,,Overcast,300,2013-02-16 11:53:00
4:09 AM,43.0,42.1,97,30.22,2.0,West,4.6,-,N/A,,Overcast,260,2013-02-16 12:09:00
4:22 AM,42.1,42.1,100,30.23,3.0,WNW,4.6,-,N/A,,Overcast,290,2013-02-16 12:22:00
4:53 AM,42.1,41.0,96,30.23,0.8,SW,4.6,-,N/A,,Overcast,220,2013-02-16 12:53:00
5:09 AM,42.1,42.1,100,30.23,1.2,WSW,4.6,-,N/A,,Overcast,240,2013-02-16 13:09:00
5:23 AM,42.1,42.1,100,30.24,0.5,SW,3.5,-,N/A,Fog,Fog,220,2013-02-16 13:23:00
5:49 AM,42.8,42.8,100,30.24,1.5,South,4.6,-,N/A,,Overcast,190,2013-02-16 13:49:00
5:53 AM,42.1,42.1,100,30.25,2.0,South,4.6,-,N/A,,Overcast,190,2013-02-16 13:53:00
6:53 AM,42.1,41.0,96,30.25,2.0,SE,3.5,-,N/A,,Overcast,140,2013-02-16 14:53:00
7:53 AM,42.1,42.1,100,30.27,2.0,Calm,Calm,-,N/A,,Overcast,0,2013-02-16 15:53:00
8:53 AM,44.1,42.1,93,30.27,2.0,Calm,Calm,-,N/A,,Overcast,0,2013-02-16 16:53:00
9:44 AM,45.0,42.1,90,30.27,2.0,Calm,Calm,-,N/A,,Overcast,0,2013-02-16 17:44:00
9:53 AM,45.0,42.1,90,30.28,2.0,Calm,Calm,-,N/A,,Overcast,0,2013-02-16 17:53:00
10:00 AM,45.0,42.1,90,30.27,6.0,Calm,Calm,-,N/A,,Overcast,0,2013-02-16 18:00:00
10:21 AM,46.0,42.1,86,30.27,7.0,Calm,Calm,-,N/A,,Overcast,0,2013-02-16 18:21:00
10:53 AM,46.0,42.1,86,30.27,9.0,Calm,Calm,-,N/A,,Overcast,0,2013-02-16 18:53:00
11:53 AM,48.0,43.0,83,30.27,10.0,SSW,4.6,-,0.00,Rain,Light Rain,210,2013-02-16 19:53:00
12:37 PM,50.0,44.1,80,30.25,10.0,SW,5.8,-,0.00,,Overcast,230,2013-02-16 20:37:00
12:53 PM,48.9,43.0,80,30.25,10.0,SW,9.2,-,0.00,Rain,Light Rain,230,2013-02-16 20:53:00
1:00 PM,50.0,44.1,80,30.24,7.0,West,6.9,-,0.01,Rain,Light Rain,260,2013-02-16 21:00:00
1:53 PM,46.9,42.1,83,30.24,10.0,NNW,5.8,-,0.02,,Overcast,330,2013-02-16 21:53:00
2:53 PM,51.1,41.0,68,30.23,10.0,NW,10.4,-,N/A,,Mostly Cloudy,320,2013-02-16 22:53:00
3:53 PM,48.9,39.0,69,30.25,10.0,NW,9.2,-,N/A,,Mostly Cloudy,320,2013-02-16 23:53:00
4:53 PM,48.0,37.0,66,30.25,10.0,WNW,12.7,-,N/A,,Scattered Clouds,300,2013-02-17 00:53:00
5:53 PM,45.0,37.0,74,30.25,10.0,WNW,15.0,-,N/A,,Clear,300,2013-02-17 01:53:00
6:53 PM,43.0,36.0,76,30.26,10.0,NW,11.5,-,N/A,,Clear,310,2013-02-17 02:53:00
7:53 PM,39.9,35.1,83,30.28,10.0,NW,6.9,-,N/A,,Clear,310,2013-02-17 03:53:00
8:53 PM,39.9,35.1,83,30.28,10.0,West,5.8,-,N/A,,Scattered Clouds,270,2013-02-17 04:53:00
9:53 PM,37.9,34.0,86,30.29,10.0,Calm,Calm,-,N/A,,Clear,0,2013-02-17 05:53:00
10:53 PM,36.0,34.0,93,30.30,10.0,NW,4.6,-,N/A,,Mostly Cloudy,310,2013-02-17 06:53:00
11:53 PM,36.0,34.0,93,30.30,9.0,SSW,3.5,-,0.00,,Scattered Clouds,210,2013-02-17 07:53:00